Weather History for LICJ - March, 2013

Change the Weather History Date:

Wednesday, March 13, 2013

  Actual Average Record
Temperature  
Mean Temperature 58 °F -  
Max Temperature 64 °F 63 °F 71 °F (2001)
Min Temperature 53 °F 53 °F 44 °F (2009)
Degree Days  
Heating Degree Days 6    
Growing Degree Days 8 (Base 50)    
Moisture  
Dew Point 47 °F    
Average Humidity 71    
Maximum Humidity 88    
Minimum Humidity 49    
Precipitation  
Precipitation 0.00 in 0.07 in - ()
Sea Level Pressure  
Sea Level Pressure 29.49 in    
Wind  
Wind Speed 18 mph ()    
Max Wind Speed 30 mph    
Max Gust Speed 48 mph    
Visibility 5.9 miles    
Events Rain    
Averages and records for this station are not official NWS values.
T = Trace of Precipitation, MM = Missing Value Source: Averaged Metar Reports

Daily Weather History Graph

Daily Weather History Graph

Search for Another Location

Airport or City:

Trip Planner

Search our weather history database for the weather conditions in past years. The results will help you decide how hot, cold, wet, or windy it might be!

Date:

Astronomy

Mar. 13, 2013 Rise Set
Actual Time 6:21 AM CET 6:12 PM CET
Civil Twilight 5:55 AM CET 6:39 PM CET
Nautical Twilight 5:25 AM CET 7:09 PM CET
Astronomical Twilight 4:54 AM CET 7:40 PM CET
Moon 6:53 AM CET (3/13) 8:09 PM CET (3/13)
Length of Visible Light 12h 43m
Length of Day
11h 50m
Waxing Crescent, 3% of the Moon is Illuminated
Mar 13
Waxing Crescent
Mar 19
First Quarter
Mar 27
Full
Apr 3
Last Quarter
Apr 10
New

Hourly Weather History & Observations

Time (CET) Temp. Dew Point Humidity Pressure Visibility Wind Dir Wind Speed Gust Speed Precip Events Conditions
12:20 AM 53.6 °F 44.6 °F 72% 29.65 in - South 20.7 mph - N/A   Clear
12:50 AM 53.6 °F 44.6 °F 72% 29.65 in - SSW 18.4 mph - N/A   Clear
1:20 AM 53.6 °F 44.6 °F 72% 29.65 in 6.2 mi South 17.3 mph - N/A   Partly Cloudy
1:50 AM 53.6 °F 44.6 °F 72% 29.65 in - SSW 12.7 mph - N/A   Clear
2:20 AM 55.4 °F 42.8 °F 63% 29.65 in - South 16.1 mph 27.6 mph N/A   Clear
2:50 AM 55.4 °F 42.8 °F 63% 29.62 in 6.2 mi South 17.3 mph - N/A   Partly Cloudy
3:20 AM 55.4 °F 44.6 °F 67% 29.62 in 6.2 mi SSW 18.4 mph - N/A   Partly Cloudy
3:50 AM 55.4 °F 44.6 °F 67% 29.59 in 6.2 mi SSW 19.6 mph - N/A   Partly Cloudy
4:20 AM 55.4 °F 44.6 °F 67% 29.59 in 6.2 mi SSW 23.0 mph - N/A   Partly Cloudy
4:50 AM 55.4 °F 46.4 °F 72% 29.59 in 6.2 mi SSW 20.7 mph - N/A   Partly Cloudy
5:20 AM 55.4 °F 44.6 °F 67% 29.59 in 6.2 mi South 21.9 mph - N/A   Partly Cloudy
5:50 AM 55.4 °F 46.4 °F 72% 29.59 in 6.2 mi South 20.7 mph - N/A   Partly Cloudy
6:20 AM 55.4 °F 46.4 °F 72% 29.59 in 6.2 mi South 21.9 mph - N/A   Partly Cloudy
6:50 AM 55.4 °F 46.4 °F 72% 29.59 in 6.2 mi South 18.4 mph - N/A Rain Light Rain
7:20 AM 55.4 °F 46.4 °F 72% 29.59 in 6.2 mi South 15.0 mph - N/A Rain Light Rain
7:50 AM 55.4 °F 48.2 °F 77% 29.59 in 6.2 mi South 11.5 mph - N/A Rain Light Rain
8:20 AM 53.6 °F 46.4 °F 77% 29.56 in 6.2 mi South 11.5 mph - N/A   Mostly Cloudy
8:50 AM 55.4 °F 46.4 °F 72% 29.56 in 6.2 mi South 9.2 mph - N/A   Mostly Cloudy
9:20 AM 55.4 °F 48.2 °F 77% 29.56 in 6.2 mi SSW 11.5 mph - N/A   Mostly Cloudy
9:50 AM 57.2 °F 46.4 °F 67% 29.56 in 6.2 mi South 16.1 mph - N/A   Mostly Cloudy
10:20 AM 57.2 °F 46.4 °F 67% 29.53 in 6.2 mi South 23.0 mph - N/A   Mostly Cloudy
10:50 AM 57.2 °F 48.2 °F 72% 29.50 in 6.2 mi South 24.2 mph - N/A   Scattered Clouds
11:20 AM 59.0 °F 48.2 °F 67% 29.50 in 6.2 mi South 24.2 mph 36.8 mph N/A   Mostly Cloudy
11:50 AM 59.0 °F 48.2 °F 67% 29.47 in 6.2 mi South 20.7 mph 34.5 mph N/A   Scattered Clouds
12:20 PM 60.8 °F 48.2 °F 63% 29.47 in 6.2 mi South 18.4 mph 32.2 mph N/A   Scattered Clouds
12:50 PM 60.8 °F 48.2 °F 63% 29.44 in 6.2 mi South 17.3 mph 29.9 mph N/A   Scattered Clouds
1:20 PM 60.8 °F 48.2 °F 63% 29.42 in 6.2 mi SSW 25.3 mph 38.0 mph N/A   Scattered Clouds
1:50 PM 62.6 °F 48.2 °F 59% 29.42 in 6.2 mi SSW 16.1 mph 28.8 mph N/A   Scattered Clouds
2:20 PM 62.6 °F 46.4 °F 55% 29.39 in 6.2 mi South 29.9 mph - N/A   Scattered Clouds
2:50 PM 64.4 °F 44.6 °F 49% 29.39 in 6.2 mi SSW 29.9 mph 48.3 mph N/A   Mostly Cloudy
3:20 PM 62.6 °F 44.6 °F 52% 29.39 in 6.2 mi SSW 21.9 mph - N/A Rain Light Rain
3:50 PM 62.6 °F 46.4 °F 55% 29.36 in 6.2 mi SSW 27.6 mph - N/A   Mostly Cloudy
4:20 PM 60.8 °F 48.2 °F 63% 29.36 in 6.2 mi SSW 27.6 mph - N/A   Mostly Cloudy
4:50 PM 60.8 °F 50.0 °F 68% 29.39 in 6.2 mi SSW 24.2 mph - N/A Rain Light Rain
5:20 PM 59.0 °F 50.0 °F 72% 29.39 in 4.3 mi SSW 18.4 mph - N/A Rain Light Rain
5:50 PM 59.0 °F 51.8 °F 77% 29.36 in 6.2 mi SSW 20.7 mph - N/A   Mostly Cloudy
6:20 PM 59.0 °F 51.8 °F 77% 29.36 in 5.6 mi SSW 23.0 mph - N/A Rain Light Rain
6:50 PM 57.2 °F 51.8 °F 82% 29.39 in 5.6 mi SW 17.3 mph - N/A Rain Light Rain
7:20 PM 55.4 °F 51.8 °F 88% 29.39 in 3.7 mi SSW 17.3 mph - N/A Rain Rain
7:50 PM 55.4 °F 51.8 °F 88% 29.39 in 3.7 mi SSW 17.3 mph - N/A Rain Rain
8:20 PM 55.4 °F 51.8 °F 88% 29.39 in 5.0 mi South 18.4 mph - N/A Rain Light Rain
8:50 PM 55.4 °F 51.8 °F 88% 29.39 in 4.3 mi SSW 18.4 mph - N/A Rain Light Rain
9:20 PM 55.4 °F 50.0 °F 82% 29.39 in 5.0 mi SW 19.6 mph - N/A Rain Light Rain
9:50 PM 55.4 °F 50.0 °F 82% 29.39 in 6.2 mi SW 20.7 mph - N/A   Mostly Cloudy
10:20 PM 55.4 °F 48.2 °F 77% 29.39 in 6.2 mi South 15.0 mph - N/A   Mostly Cloudy
10:50 PM 53.6 °F 46.4 °F 77% 29.39 in 6.2 mi South 21.9 mph - N/A   Mostly Cloudy
11:20 PM 55.4 °F 44.6 °F 67% 29.39 in 6.2 mi South 21.9 mph - N/A   Scattered Clouds
11:50 PM 55.4 °F 46.4 °F 72% 29.36 in 6.2 mi South 18.4 mph - N/A   Scattered Clouds